Time,TemperatureF,DewpointF,PressureIn,WindDirection,WindDirectionDegrees,WindSpeedMPH,WindSpeedGustMPH,Humidity,HourlyPrecipIn,Conditions,Clouds,dailyrainin,SoftwareType,DateUTC
2013-03-13 00:00:00,32.0,-99.9,-100.00,SSE,157,2.0,2.0,-999,-99.99,,,-99.99,,2013-03-13 06:00:00,
2013-03-13 00:53:00,32.0,-99.9,-100.00,SSE,157,2.0,2.0,-999,-99.99,,,-99.99,,2013-03-13 06:53:00,
2013-03-13 01:00:00,31.0,-99.9,-100.00,NNE,12,3.0,6.0,-999,-99.99,,,-99.99,,2013-03-13 07:00:00,
2013-03-13 01:53:00,31.0,-99.9,-100.00,NNE,12,3.0,6.0,-999,-99.99,,,-99.99,,2013-03-13 07:53:00,
2013-03-13 02:00:00,32.0,-99.9,-100.00,SW,234,4.0,6.0,-999,-99.99,,,-99.99,,2013-03-13 08:00:00,
2013-03-13 02:54:00,32.0,-99.9,-100.00,SW,234,4.0,6.0,-999,-99.99,,,-99.99,,2013-03-13 08:54:00,
2013-03-13 03:00:00,32.0,-99.9,-100.00,WNW,285,4.0,9.0,-999,-99.99,,,-99.99,,2013-03-13 09:00:00,
2013-03-13 03:53:00,32.0,-99.9,-100.00,WNW,285,4.0,9.0,-999,-99.99,,,-99.99,,2013-03-13 09:53:00,
2013-03-13 04:52:00,32.0,-99.9,-100.00,SE,130,2.0,9.0,-999,-99.99,,,-99.99,,2013-03-13 10:52:00,
2013-03-13 05:00:00,31.0,-99.9,-100.00,East,83,4.0,6.0,-999,-99.99,,,-99.99,,2013-03-13 11:00:00,
2013-03-13 05:02:00,32.0,-99.9,-100.00,SE,130,2.0,9.0,-999,-99.99,,,-99.99,,2013-03-13 11:02:00,
2013-03-13 05:53:00,31.0,-99.9,-100.00,East,83,4.0,6.0,-999,-99.99,,,-99.99,,2013-03-13 11:53:00,
2013-03-13 06:00:00,29.0,-99.9,-100.00,ESE,114,3.0,4.0,-999,-99.99,,,-99.99,,2013-03-13 12:00:00,
2013-03-13 06:53:00,29.0,-99.9,-100.00,ESE,114,3.0,4.0,-999,-99.99,,,-99.99,,2013-03-13 12:53:00,
2013-03-13 07:00:00,29.0,-99.9,-100.00,SE,135,2.0,2.0,-999,-99.99,,,-99.99,,2013-03-13 13:00:00,
2013-03-13 07:53:00,29.0,-99.9,-100.00,SE,135,2.0,2.0,-999,-99.99,,,-99.99,,2013-03-13 13:53:00,
2013-03-13 08:00:00,31.0,-99.9,-100.00,West,278,4.0,5.0,-999,-99.99,,,-99.99,,2013-03-13 14:00:00,
2013-03-13 08:53:00,31.0,-99.9,-100.00,West,278,4.0,5.0,-999,-99.99,,,-99.99,,2013-03-13 14:53:00,
2013-03-13 09:00:00,33.0,-99.9,-100.00,West,261,9.0,10.0,-999,-99.99,,,-99.99,,2013-03-13 15:00:00,
2013-03-13 09:53:00,33.0,-99.9,-100.00,West,261,9.0,10.0,-999,-99.99,,,-99.99,,2013-03-13 15:53:00,
2013-03-13 10:00:00,41.0,-99.9,-100.00,WSW,253,5.0,7.0,-999,-99.99,,,-99.99,,2013-03-13 16:00:00,
2013-03-13 10:52:00,41.0,-99.9,-100.00,WSW,253,5.0,7.0,-999,-99.99,,,-99.99,,2013-03-13 16:52:00,
2013-03-13 11:00:00,48.0,-99.9,-100.00,WNW,297,7.0,9.0,-999,-99.99,,,-99.99,,2013-03-13 17:00:00,
2013-03-13 11:53:00,48.0,-99.9,-100.00,WNW,297,7.0,9.0,-999,-99.99,,,-99.99,,2013-03-13 17:53:00,
2013-03-13 12:00:00,55.0,-99.9,-100.00,NNW,340,11.0,16.0,-999,-99.99,,,-99.99,,2013-03-13 18:00:00,
2013-03-13 12:52:00,55.0,-99.9,-100.00,NNW,340,11.0,16.0,-999,-99.99,,,-99.99,,2013-03-13 18:52:00,
2013-03-13 13:00:00,59.0,-99.9,-100.00,NNW,342,17.0,21.0,-999,-99.99,,,-99.99,,2013-03-13 19:00:00,
2013-03-13 13:53:00,59.0,-99.9,-100.00,NNW,342,17.0,21.0,-999,-99.99,,,-99.99,,2013-03-13 19:53:00,
2013-03-13 14:00:00,62.0,-99.9,-100.00,NW,320,7.0,13.0,-999,-99.99,,,-99.99,,2013-03-13 20:00:00,
2013-03-13 14:53:00,62.0,-99.9,-100.00,NW,320,7.0,13.0,-999,-99.99,,,-99.99,,2013-03-13 20:53:00,
2013-03-13 15:00:00,64.0,-99.9,-100.00,NW,304,17.0,17.0,-999,-99.99,,,-99.99,,2013-03-13 21:00:00,
2013-03-13 15:52:00,64.0,-99.9,-100.00,NW,304,17.0,17.0,-999,-99.99,,,-99.99,,2013-03-13 21:52:00,
2013-03-13 16:00:00,64.0,-99.9,-100.00,NNW,335,5.0,10.0,-999,-99.99,,,-99.99,,2013-03-13 22:00:00,
2013-03-13 16:53:00,64.0,-99.9,-100.00,NNW,335,5.0,10.0,-999,-99.99,,,-99.99,,2013-03-13 22:53:00,
2013-03-13 17:00:00,60.0,-99.9,-100.00,South,177,7.0,14.0,-999,-99.99,,,-99.99,,2013-03-13 23:00:00,
2013-03-13 17:53:00,60.0,-99.9,-100.00,South,177,7.0,14.0,-999,-99.99,,,-99.99,,2013-03-13 23:53:00,
2013-03-13 18:00:00,59.0,-99.9,-100.00,South,172,6.0,8.0,-999,-99.99,,,-99.99,,2013-03-14 00:00:00,
2013-03-13 18:53:00,59.0,-99.9,-100.00,South,172,6.0,8.0,-999,-99.99,,,-99.99,,2013-03-14 00:53:00,
2013-03-13 19:00:00,55.0,-99.9,-100.00,SSW,196,5.0,8.0,-999,-99.99,,,-99.99,,2013-03-14 01:00:00,
2013-03-13 19:53:00,55.0,-99.9,-100.00,SSW,196,5.0,8.0,-999,-99.99,,,-99.99,,2013-03-14 01:53:00,
2013-03-13 20:00:00,51.0,-99.9,-100.00,SSW,204,3.0,16.0,-999,-99.99,,,-99.99,,2013-03-14 02:00:00,
2013-03-13 21:53:00,50.0,-99.9,-100.00,West,273,5.0,8.0,-999,-99.99,,,-99.99,,2013-03-14 03:53:00,
2013-03-13 22:00:00,46.0,-99.9,-100.00,WNW,301,9.0,9.0,-999,-99.99,,,-99.99,,2013-03-14 04:00:00,
2013-03-13 22:53:00,46.0,-99.9,-100.00,WNW,301,9.0,9.0,-999,-99.99,,,-99.99,,2013-03-14 04:53:00,
2013-03-13 23:00:00,42.0,-99.9,-100.00,West,278,11.0,12.0,-999,-99.99,,,-99.99,,2013-03-14 05:00:00,
2013-03-13 23:53:00,42.0,-99.9,-100.00,West,278,11.0,12.0,-999,-99.99,,,-99.99,,2013-03-14 05:53:00,